EHI
0 0 0 0 0 0 0 0 0 0 0 0 0 0 0 0 0 0 0 0 0 0 0 0 0 0 0 0 0 0 0 0 0 0 0 0 0 0 0 0 0 0 0 0
0 0 0 0 0 0 0 0 0 0 0 0 0 0 0 0 0 0 0 0 0 0 0 0 0 0 0 0 0 0 0 0 0 0 0 0 0 0 0 0 0 0 0 0
0 0 0 0 0 0 0 0 0 0 0 0 0 0 0 0 0 0 0 0 0 0 0 0 0 0 0 0 0 0 0 0 0 0 0 0 0 0 0 0 0 0 0 0
0 0 0 0 0 0 0 0 0 0 0 0 0 0 0 0 0 0 0 0 0 0 0 0 0 0 0 0 0 0 0 0 0 0 0 0 0 0 0 0 0 0 0 0
0 0 0 0 0 0 0 0 0 0 0 0 0 0 0 0 0 0 0 0 0 0 0 0 0 0 0 0 0 0 0 0 0 0 0 0 0 0 0 0 0 0 0 0
0 0 0 0 0 0 0 0 0 0 0 0 0 0 0 0 0 0 0 0 0 0 0 0 0 0 0 0 0 0 0 0 0 0 0 0 0 0 0 0 0 0 0 0
0 0 0 0 0 0 0 0 0 0 0 0 0 0 0 0 0 0 0 0 0 0 0 0 0 0 0 0 0 0 0 0 0 0 0 0 0 0 0 0 0 0 0 0
0 0 0 0 0 0 0 0 0 0 0 0 0 0 0 0 0 0 0 0 0 0 0 0 0 0 0 0 0 0 0 0 0 0 0 0 0 0 0 0 0 0 0 0
0 0 0 0 0 0 0 0 0 0 0 0 0 0 0 0 0 0 0 0 0 0 0 0 0 0 0 0 0 0 0 0 0 0 0 0 0 0 0 0 0 0 0 0
0 0 0 0 0 0 0 0 0 0 0 0 0 0 0 0 0 0 0 0 0 0 0 0 0 0 0 0 0 0 0 0 0 0 0 0 0 0 0 0 0 0 0 0
0 0 0 0 0 0 0 0 0 0 0 0 0 0 0 0 0 0 0 0 0 0 0 0 0 0 0 0 0 0 0 0 0 0 0 0 0 0 0 0 0 0 0 0
0 0 0 0 0 0 0 0 0 0 0 0 0 0 0 0 0 0 0 0 0 0 0 0 0 0 0 0 0 0 0 0 0 0 0 0 0 0 0 0 0 0 0 0
0 0 0 0 0 0 0 0 0 0 0 0 0 0 0 0 0 0 0 0 0 0 0 0 0 0 0 0 0 0 0 0 0 0 0 0 0 0 0 0 0 0 0 0
0 0 0 0 0 0 0 0 0 0 0 0 0 0 0 0 0 0 0 0 0 0 0 0 0 0 0 0 0 0 0 0 0 0 0 0 0 0 0 0 0 0 0 0
0 0 0 0 0 0 0 0 0 0 0 0 0 0 0 0 0 0 0 0 0 0 0 0 0 0 0 0 0 0 0 0 0 0 0 0 0 0 0 0 0 0 0 0
0 0 0 0 0 0 0 0 0 0 0 0 0 0 0 0 0 0 0 0 0 0 0 0 0 0 0 0 0 0 0 0 0 0 0 0 0 0 0 0 0 0 0 0
0 0 0 0 0 0 0 0 0 0 0 0 0 0 0 0 0 0 0 0 0 0 0 0 0 0 0 0 0 0 0 0 0 0 0 0 0 0 0 0 0 0 0 0
0 0 0 0 0 0 0 0 0 0 0 0 0 0 0 0 0 0 0 0 0 0 0 0 0 0 0 0 0 0 0 0 0 0 0 0 0 0 0 0 0 0 0 0
0 0 0 0 0 0 0 0 0 0 0 0 0 0 0 0 0 0 0 0 0 0 0 0 0 0 0 0 0 0 0 0 0 0 0 0 0 0 0 0 0 0 0 0
0 0 0 0 0 0 0 0 0 0 0 0 0 0 0 0 0 0 0 0 0 0 0 0 0 0 0 0 0 0 0 0 0 0 0 0 0 0 0 0 0 0 0 0
0 0 0 0 0 0 0 0 0 0 0 0 0 0 0 0 0 0 0 0 0 0 0 0 0 0 0 0 0 0 0 0 0 0 0 0 0 0 0 0 0 0 0 0
0 0 0 0 0 0 0 0 0 0 0 0 0 0 0 0 0 0 0 0 0 0 0 0 0 0 0 0 0 0 0 0 0 0 0 0 0 0 0 0 0 0 0 0
0 0 0 0 0 0 0 0 0 0 0 0 0 0 0 0 0 0 0 0 0 0 0 0 0 0 0 0 0 0 0 0 0 0 0 0 0 0 0 0 0 0 0 0
0 0 0 0 0 0 0 0 0 0 0 0 0 0 0 0 0 0 0 0 0 0 0 0 0 0 0 0 0 0 0 0 0 0 0 0 0 0 0 0 0 0 0 0
0 0 0 0 0 0 0 0 0 0 0 0 0 0 0 0 0 0 0 0 0 0 0 0 0 0 0 0 0 0 0 0 0 0 0 0 0 0 0 0 0 0 0 0
0 0 0 0 0 0 0 0 0 0 0 0 0 0 0 0 0 0 0 0 0 0 0 0 0 0 0 0 0 0 0 0 0 0 0 0 0 0 0 0 0 0 0 0
0 0 0 0 0 0 0 0 0 0 0 0 0 0 0 0 0 0 0 0 0 0 0 0 0 0 0 0 0 0 0 0 0 0 0 0 0 0 0 0 0 0 0 0
Wind_Speed
6 5 6 8 8 10 12 12 11 10 11 12 9 9 8 7 7 8 9 10 11 11 9 8 8 7 6 6 5 4 4 4 4 4 4 4 5 5 6 6 7 7 7 7
4 5 6 6 8 9 11 11 12 10 12 9 6 4 5 7 9 10 11 11 11 10 9 9 9 7 6 5 5 4 4 4 4 4 4 5 6 6 6 6 7 7 7 8
4 2 1 8 10 10 8 9 10 15 16 6 4 7 9 10 10 11 10 10 11 10 10 9 8 7 7 6 4 3 3 4 4 4 5 6 6 6 7 7 7 7 8 8
4 3 8 10 5 8 9 9 10 8 7 7 9 6 4 6 9 9 8 8 8 8 7 6 5 5 5 4 3 3 3 4 5 5 6 6 6 7 7 7 7 7 8 9
5 5 8 8 5 6 7 8 8 10 7 4 3 3 2 1 5 7 7 7 7 7 7 6 6 5 4 3 2 3 4 5 5 5 6 6 7 8 7 7 7 8 8 9
5 5 8 9 4 3 3 7 5 6 7 6 6 3 5 2 4 6 7 7 7 6 6 6 4 4 4 3 2 4 5 6 6 6 6 7 8 8 7 7 8 8 9 8
6 6 9 8 3 5 5 8 2 5 7 8 8 6 4 6 5 6 7 7 7 7 5 4 4 4 3 3 5 5 5 5 6 6 7 8 8 7 7 8 8 8 10 9
6 5 11 5 7 9 9 2 2 4 5 6 4 4 6 6 7 7 7 6 6 5 4 2 3 3 3 4 5 4 4 5 6 7 7 6 7 8 7 7 8 9 9 10
11 10 5 6 8 6 4 4 3 4 4 6 6 6 6 6 7 6 6 5 4 5 3 1 2 3 4 5 4 4 5 6 7 7 7 7 7 8 7 7 7 8 8 9
5 7 5 5 4 3 4 5 4 4 6 7 7 7 7 7 6 5 4 4 3 4 2 2 2 3 4 5 5 5 6 7 7 7 7 7 6 6 7 7 7 8 9 9
5 5 2 4 6 6 4 3 4 4 4 6 8 7 7 6 6 5 4 3 3 3 3 3 3 4 5 5 4 5 7 7 7 7 7 7 7 7 8 7 9 11 9 8
8 8 7 6 6 6 6 6 6 6 4 4 6 7 7 6 5 4 4 3 2 2 3 4 4 5 6 5 5 6 6 6 6 6 6 6 7 9 12 15 20 21 21 19
6 4 5 2 3 5 6 6 6 6 7 6 5 6 7 5 4 4 3 3 3 3 4 4 5 6 6 5 5 6 7 7 6 6 6 7 7 8 11 12 16 19 21 23
3 5 3 3 3 4 5 5 6 6 5 6 5 6 6 4 4 3 3 3 2 3 4 4 5 7 7 6 6 7 7 9 9 6 6 7 7 8 9 10 11 9 12 20
3 4 5 4 5 5 6 7 8 6 6 5 5 6 5 5 3 2 2 1 2 3 4 5 6 8 7 6 6 7 7 6 6 6 7 7 7 8 8 10 11 11 9 11
3 4 5 6 6 6 6 7 7 6 5 5 4 4 4 3 2 1 1 1 2 5 6 6 7 8 7 6 7 6 6 13 12 8 7 7 7 8 9 10 10 10 10 9
6 5 5 5 6 5 5 5 6 6 5 5 4 4 3 2 0 2 3 3 4 5 6 7 8 8 7 7 7 6 6 9 15 10 7 8 8 9 9 10 10 10 10 12
5 5 6 7 7 7 6 5 6 6 5 4 4 3 2 1 2 3 4 4 5 6 7 7 7 8 7 7 6 6 6 7 7 8 8 8 9 9 9 10 10 12 10 11
5 6 6 7 7 7 6 6 5 5 4 4 3 2 1 2 3 4 4 5 6 8 7 6 13 9 7 9 11 6 7 8 8 8 8 13 12 9 9 10 11 10 11 11
7 7 8 8 7 7 7 6 5 4 3 3 2 1 1 3 3 4 4 5 6 6 7 9 9 7 8 9 13 6 7 8 9 9 9 9 9 10 10 10 11 11 11 11
8 8 9 9 8 7 6 5 5 4 2 2 1 1 3 4 4 4 4 6 7 7 8 13 8 6 7 10 13 6 7 8 9 9 9 10 10 10 10 11 11 11 11 11
7 8 8 8 7 6 4 4 4 3 1 1 1 2 3 4 5 5 6 6 7 11 9 6 6 11 14 16 7 6 7 8 9 8 9 9 10 11 11 11 11 11 11 10
7 7 7 6 6 4 3 3 2 1 0 1 2 3 4 5 4 5 7 5 5 12 10 6 12 20 22 11 6 7 8 9 9 9 10 10 10 10 11 11 11 11 10 10
7 6 5 5 4 4 3 2 2 1 2 3 3 4 4 5 5 5 6 11 15 16 9 12 20 22 20 7 6 8 8 9 9 9 10 10 10 10 10 11 11 10 11 12
6 5 4 4 3 1 0 1 2 2 3 3 4 5 4 4 5 6 6 7 13 15 9 12 19 21 12 7 8 9 9 9 11 11 9 10 10 10 11 11 11 11 11 11
4 3 2 2 1 0 0 1 2 2 3 4 5 4 4 4 5 6 6 8 10 14 10 8 9 12 8 8 9 10 9 11 12 10 10 11 12 12 11 11 13 12 12 11
3 2 2 2 1 1 1 1 2 3 3 4 6 5 5 6 6 7 8 8 8 8 8 8 8 8 9 9 9 10 10 10 10 10 10 10 11 11 11 13 12 11 11 12
Wind_Direction
208 208 178 203 212 197 200 209 214 233 234 246 240 228 224 209 189 180 182 182 182 182 180 177 174 175 175 177 178 177 185 210 234 244 249 256 262 266 269 269 270 270 275 276
218 211 203 227 229 214 218 223 230 249 259 245 247 212 206 201 190 190 191 189 184 179 176 177 177 175 173 178 183 177 194 225 242 251 258 261 263 266 269 271 272 273 272 274
219 210 172 251 224 211 213 213 203 229 245 239 225 214 209 205 198 197 193 185 180 179 177 175 173 169 176 183 178 181 210 238 249 255 261 264 267 269 270 271 272 274 273 272
160 144 227 241 223 204 215 236 219 230 245 223 219 218 215 197 193 194 182 173 170 163 159 157 156 159 162 162 173 197 229 249 257 259 263 268 269 268 269 267 268 270 272 271
149 202 260 283 248 195 203 256 228 224 235 215 151 87 334 258 186 181 169 156 152 148 144 143 150 153 147 162 188 220 245 255 258 256 261 267 268 269 270 271 272 270 270 272
149 183 229 242 222 169 138 267 249 202 202 176 138 160 245 193 135 128 125 128 129 127 125 137 152 145 148 188 218 242 250 255 258 256 258 263 266 270 271 269 272 275 276 272
171 209 253 248 187 125 180 242 232 179 179 171 183 199 176 135 121 123 122 124 126 128 135 152 154 145 170 215 241 250 256 261 264 261 260 263 267 269 273 276 278 277 279 277
162 197 248 217 147 183 214 210 166 171 174 172 170 130 130 133 131 129 124 126 129 129 138 154 156 157 202 243 252 258 262 266 268 268 269 274 272 275 275 276 279 281 283 284
188 209 232 181 195 207 172 176 183 173 172 151 147 152 145 140 139 136 134 134 130 135 143 184 195 187 228 255 262 267 270 271 273 275 273 271 272 276 280 277 277 284 285 287
218 251 242 221 221 205 189 188 180 166 157 154 157 154 148 145 144 141 137 138 135 138 162 236 252 245 244 263 269 268 270 274 275 276 278 275 272 271 274 277 279 283 285 286
223 254 252 244 218 204 181 156 138 133 151 156 147 149 152 152 153 151 145 145 148 165 204 245 263 268 268 270 270 271 273 275 277 274 276 280 276 269 274 263 270 284 283 281
210 209 190 221 213 178 165 172 163 146 135 139 148 149 146 150 152 151 151 153 166 204 234 256 267 273 277 275 269 271 278 278 276 277 278 278 284 289 281 281 290 292 292 291
198 183 179 194 163 162 169 172 162 153 147 140 137 138 139 139 145 146 154 173 203 231 248 263 273 277 279 278 273 268 271 277 278 275 278 281 284 289 295 296 291 292 294 296
158 129 145 178 172 158 147 135 121 113 114 122 123 121 122 122 133 152 183 213 232 251 265 271 276 279 280 280 276 273 272 280 285 275 276 278 280 281 285 292 298 292 290 293
179 168 165 145 123 117 117 117 115 116 114 109 115 123 129 136 156 189 222 246 266 274 277 280 281 283 286 283 278 276 277 276 277 274 274 276 279 281 283 284 287 291 291 291
137 114 122 130 138 131 126 130 133 139 134 127 125 130 137 145 164 212 254 258 271 279 283 283 280 283 288 285 281 280 277 287 295 288 281 282 282 284 286 286 287 289 291 294
143 155 157 156 154 147 147 145 145 143 135 133 138 135 128 128 169 275 281 278 268 271 275 275 278 284 285 280 278 280 278 284 293 294 283 283 283 283 285 286 287 289 289 292
166 170 163 158 154 144 133 125 126 128 131 136 131 128 137 177 251 274 285 295 296 290 280 274 278 287 282 280 280 277 277 278 278 280 282 283 285 282 283 284 287 289 291 295
117 126 126 126 129 129 126 123 121 118 116 120 125 145 206 252 267 278 289 293 292 291 288 285 302 302 289 288 296 279 277 282 285 283 282 289 294 287 286 286 287 287 290 292
101 103 104 101 101 108 112 112 111 109 110 113 111 98 298 288 285 285 284 276 267 265 278 290 293 285 284 285 296 283 280 283 286 288 288 286 287 289 288 287 287 287 288 288
105 103 102 101 96 94 101 109 111 109 100 103 133 254 276 285 286 283 283 287 281 278 285 297 298 288 289 292 298 285 282 285 288 289 290 290 290 290 289 288 288 290 290 289
104 104 103 102 100 92 83 90 98 100 82 20 307 284 285 289 290 283 265 263 280 298 301 286 284 294 302 305 293 286 286 289 290 289 289 289 289 290 290 290 289 290 290 289
102 102 101 100 101 95 74 69 73 79 358 296 290 287 281 279 279 285 293 285 286 301 304 286 298 305 309 308 292 291 291 291 291 289 288 287 286 287 289 290 290 291 290 289
98 95 93 90 90 86 67 22 5 340 298 287 279 276 278 287 285 266 268 296 306 307 301 299 307 310 313 307 294 291 290 290 288 287 286 286 286 286 287 289 289 288 287 287
100 97 95 91 84 80 45 341 337 323 309 296 290 284 274 263 273 288 289 290 302 309 302 304 309 312 310 295 292 291 290 287 290 293 290 291 290 289 289 288 288 289 288 287
95 95 91 90 107 144 306 317 309 305 306 305 302 295 290 284 281 286 291 292 293 304 304 298 297 301 296 291 291 292 291 294 296 294 289 290 290 290 290 290 289 288 287 286
80 75 67 43 19 357 319 303 297 299 299 298 299 298 298 299 297 296 296 298 299 298 297 295 294 294 294 294 294 293 293 292 292 291 291 291 291 290 290 288 288 287 286 285